MP3/FLAC

‹ prev 2022-09-22 next › 950 release(s) · 89,39 GB · filter: day
Release Group Size Files Date ↓
No1semach1ne-Chapter_1-WEB-2022-KNOWN KNOWN 43,23 MB 14 2022-09-22
Jason_the_Argonaut-Deep_Time-WEB-2022-KNOWN KNOWN 91,49 MB 23 2022-09-22
Juan_Rios-Summer_Cocktails-WEB-2022-KNOWN KNOWN 116,68 MB 16 2022-09-22
SR_MPOFU-StRuMentals-EP-WEB-2022-KNOWN KNOWN 25,94 MB 10 2022-09-22
Aesop_Rock-Spirit_World_Field_Guide_(Instrumentals)-WEB-2022-KNOWN KNOWN 145,07 MB 25 2022-09-22
Brainorchestra-Live_and_Direct-WEB-2022-KNOWN_iNT KNOWN_iNT 41,99 MB 16 2022-09-22
Coldfinga-Beyond_The_Pond-WEB-2022-KNOWN KNOWN 90,07 MB 16 2022-09-22
Cotola-Narco_Bolero_-_Instrumental_Series_Vol_3-WEB-2022-KNOWN KNOWN 52,70 MB 14 2022-09-22
How_C-Lefferts-WEB-2022-KNOWN KNOWN 32,92 MB 14 2022-09-22
Fuchi-Vol_1-WEB-2022-KNOWN KNOWN 86,22 MB 19 2022-09-22
JAMES_I.V.-Redemption_Songs_For_Robots-WEB-2022-KNOWN KNOWN 34,78 MB 11 2022-09-22
Move_78_and_Aver-Human_Reactions_(Live)-WEB-2022-KNOWN KNOWN 56,83 MB 10 2022-09-22
Stratovarius-Survive-CD-FLAC-2022-MOD MOD 433,51 MB 15 2022-09-22
Otis_Ubaka-Sunshine_Hours-EP-WEB-2020-KNOWN KNOWN 36,45 MB 9 2022-09-22
SR_MPOFU-Seven-WEB-2022-KNOWN KNOWN 30,71 MB 11 2022-09-22
DJ_MROK-Night_Of_The_Living_Jeep_Beats-WEB-2021-KNOWN KNOWN 70,05 MB 18 2022-09-22
DJ_MROK-Old_Soul-EP-WEB-2018-KNOWN KNOWN 43,98 MB 10 2022-09-22
DJ_MROK-Unkut_Gemz-WEB-2020-KNOWN KNOWN 83,77 MB 15 2022-09-22
DJ_MROK-Wax_Nostalgic-WEB-2018-KNOWN KNOWN 94,82 MB 16 2022-09-22
Nord1kone_and_DJ_MROK-Tower_Of_Babylon-WEB-2022-KNOWN KNOWN 90,63 MB 16 2022-09-22
Gianni_Brezzo-Limonata-WEB-2021-KNOWN KNOWN 50,40 MB 11 2022-09-22
Gianni_Brezzo-Tamburi_Blu-EP-WEB-2021-KNOWN KNOWN 22,31 MB 8 2022-09-22
Mr._Watson-Analects_Vol_1-WEB-2022-KNOWN KNOWN 147,16 MB 45 2022-09-22
Mr._Watson-BreakingStuff2LookTuff_Vol_1-WEB-2022-KNOWN KNOWN 36,90 MB 18 2022-09-22
Mr._Watson-BreakingStuff2LookTuff_Vol_2-WEB-2022-KNOWN KNOWN 48,18 MB 25 2022-09-22
Mr._Watson-The_Sidewalk_Beattape-WEB-2021-KNOWN KNOWN 212,87 MB 57 2022-09-22
Otis_Ubaka-Cuban_Espresso-EP-WEB-2022-KNOWN KNOWN 25,05 MB 9 2022-09-22
DJ_MROK-From_The_Land_Of_Lions-WEB-2022-KNOWN KNOWN 75,20 MB 15 2022-09-22
Cliffe-Flame-WEB-2020-KNOWN KNOWN 33,71 MB 14 2022-09-22
Cliffe-Heal-WEB-2020-KNOWN KNOWN 42,53 MB 14 2022-09-22
Cliffe-Isloation-WEB-2019-KNOWN KNOWN 71,89 MB 23 2022-09-22
Cliffe-The_Snowball_Effect-WEB-2020-KNOWN KNOWN 31,79 MB 14 2022-09-22
DJ_MROK-Beats4Daze-WEB-2019-KNOWN KNOWN 84,62 MB 16 2022-09-22
Cliffe-Delusion-WEB-2020-KNOWN KNOWN 31,06 MB 11 2022-09-22
Cliffe-Hard_Feelings-WEB-2021-KNOWN KNOWN 48,13 MB 13 2022-09-22
Eevee_and_Cliffe-Dead_End-WEB-2022-KNOWN KNOWN 54,43 MB 14 2022-09-22
Eevee_and_Cliffe-Dead_End_(Instrumentals)-WEB-2022-KNOWN KNOWN 54,31 MB 14 2022-09-22
bennyonthebeat-Lifted-WEB-2022-KNOWN KNOWN 88,62 MB 26 2022-09-22
Eevee_and_Sweeep-Vandalism_and_Selfcare-WEB-2022-KNOWN KNOWN 54,63 MB 11 2022-09-22
bennyonthebeat-Bloomin-WEB-2018-KNOWN KNOWN 108,07 MB 23 2022-09-22
bennyonthebeat-PLAY-WEB-2021-KNOWN KNOWN 96,55 MB 30 2022-09-22
Dino_Lee-Just_Tired_of-WEB-CN-2022-TosK TosK 80,99 MB 14 2022-09-22
Greyson_Chance-Palladium-WEB-2022-TosK TosK 100,98 MB 17 2022-09-22
After_Journey-Fu-Qi_Temple-WEB-CN-2022-TosK TosK 113,54 MB 19 2022-09-22
Aero-Boat-Aero-Boat-WEB-CN-2022-TosK TosK 131,20 MB 14 2022-09-22
Heat_Mark-The_Independent_Motherfu_Ers-WEB-CN-2022-TosK TosK 70,91 MB 12 2022-09-22
Jellorio-Legend-WEB-CN-2022-TosK TosK 61,38 MB 13 2022-09-22
Mel-Telekinesis-(UKF089)-SINGLE-WEB-2022-PTC PTC 8,65 MB 4 2022-09-22
Lenzman_and_Redeyes-Wet_Like_Water-(NQ039S2)-SINGLE-WEB-2022-PTC PTC 10,00 MB 4 2022-09-22
Dunkler_Klang-The_Qualities-(AES044)-WEB-2022-PTC PTC 47,27 MB 6 2022-09-22